TIME,DELAY(SENSOR),PRES,T(CTD),SAL,OXYGEN,RAWTEMP,T(OPTODE),TCPHASE,FLUOR,BETA(BETA700),BETA(BETA412),BETA(BETA440),CDOM,C(CSC),ED(ED412.40),ED(ED444.00),ED(ED489.70),ED(ED554.30),LU(LU411.80),LU(LU443.40),LU(LU489.60),LU(LU554.10),COMP,TILTX,TILTX(TILTY),CHECK
1337203963,5809,496.9299926757812500,6.9383997917175290,34.1566009521484400,82.1666564941406200,589.5781250000000000,6.9204177856445310,48.5048904418945300,51,111,92,80,80,15232,2147748973,2147422400,2148000987,2147877467,2147628242,2147084306,2148246720,2147204032,2499,4,13,53710
1337204078,5808,485.5899963378906000,7.1020998954772950,34.1515998840332000,90.6188812255859400,584.5380249023438000,7.0826230049133300,47.4647789001464840,51,111,93,81,80,15233,2147749403,2147424054,2148001590,2147875849,2147627849,2147081042,2148248329,2147205412,3239,4,13,63210
1337204183,5807,475.2600097656250000,7.1730999946594240,34.1507987976074200,92.7234573364257800,582.0684814453125000,7.1620101928710940,47.1960792541503900,51,110,89,81,80,15233,2147747675,2147425060,2148000667,2147874038,2147626304,2147087003,2148237668,2147204086,675,5,13,59549
1337204298,5807,464.1099853515625000,7.4099998474121090,34.1370010375976560,99.6023406982421900,575.1571044921875000,7.3839049339294430,46.3456611633300800,51,111,90,80,80,15235,2147751515,2147423597,2147998436,2147875684,2147626852,2147085476,2148241654,2147202541,1643,4,13,59785
1337204413,5804,453.1499938964844000,7.6482000350952150,34.1311988830566400,109.2363967895507800,567.4163208007812000,7.6319260597229000,45.2260513305664060,51,111,92,81,78,15232,2147749083,2147422208,2147999771,2147875712,2147625344,2147088384,2148239972,2147201801,1992,4,13,43163
1337204530,5805,441.7900085449219000,7.7603998184204100,34.1353988647460940,114.5703964233398400,563.9729003906250000,7.7420849800109860,44.6399116516113300,51,108,90,82,79,15234,2147746532,2147423286,2148000978,2147872950,2147625453,2147086473,2148239789,2147201398,1245,4,13,46945
1337204633,5805,431.4899902343750000,7.9464001655578610,34.1287002563476560,121.2994995117187500,558.0159301757812000,7.9324212074279785,43.8931388854980500,51,109,90,82,79,15237,2147745206,2147422674,2147998089,2147874249,2147625398,2147086345,2148238564,2147203126,1706,4,13,20200
1337204748,5810,420.0299987792969000,8.2747001647949220,34.1267013549804700,129.0838012695312500,547.8602294921875000,8.2562198638916020,42.9996795654296900,50,109,88,79,78,15235,2147745819,2147425856,2148000201,2147877019,2147623451,2147089590,2148236589,2147206326,3505,4,13,27108
1337204865,5809,408.4299926757812500,8.3290004730224610,34.1279983520507800,134.8885955810547000,545.7506713867188000,8.3233718872070310,42.4448814392089840,51,109,88,82,78,15234,2147741714,2147423469,2147997696,2147874194,2147621193,2147091428,2148229952,2147204288,589,4,13,44037
1337204980,5805,397.0400085449219000,8.5008001327514650,34.1265983581543000,140.2447967529297000,540.2802734375000000,8.4973430633544920,41.8844795227050800,50,109,89,80,77,15236,2147744045,2147424246,2148000886,2147875693,2147621229,2147088612,2148234989,2147205193,869,4,13,23213
1337205095,5808,386.2900085449219000,8.7523002624511720,34.1250991821289060,147.5260925292968800,532.8624877929688000,8.7328643798828120,41.1463317871093750,50,113,90,80,75,15236,2147739556,2147425042,2147998482,2147876617,2147619373,2147091657,2148237769,2147208466,542,4,13,56811
1337205224,5809,375.3999938964844000,8.9766998291015620,34.1226997375488300,155.2102966308593800,525.5393066406250000,8.9649600982666020,40.3996505737304700,50,112,89,81,77,15236,2147741888,2147426130,2147998692,2147873261,2147618715,2147091227,2148231241,2147203117,1185,4,13,65286
1337205375,5808,364.6600036621094000,9.3011999130249020,34.1313018798828100,162.2781982421875000,515.4069213867188000,9.2854175567626950,39.6767387390136700,50,113,93,81,76,15228,2147741467,2147427456,2147999085,2147873426,2147618358,2147093385,2148231652,2147204507,1437,4,13,27211
1337205533,5808,353.3900146484375000,9.8817996978759770,34.1419982910156250,171.6997070312500000,495.2684936523437500,9.9201192855834960,38.6349792480468750,50,112,89,81,74,15233,2147739008,2147424265,2147999798,2147872585,2147615771,2147098596,2148231378,2147205650,1453,4,13,51629
1337205672,5807,342.4400024414062500,10.4492998123168950,34.1551017761230500,177.1492004394531200,478.9894104003906000,10.4311504364013670,37.9723587036132800,50,107,89,81,73,15237,2147738432,2147427766,2148003520,2147873462,2147612196,2147101458,2148227309,2147206537,1238,4,13,52149
1337205795,5809,331.3699951171875000,10.8521995544433600,34.1651000976562500,182.6150970458984400,464.8776855468750000,10.8727598190307620,37.3600196838378900,48,106,86,81,73,15239,2147736722,2147426870,2148000137,2147871908,2147608749,2147110308,2148228699,2147207661,1316,3,14,17383
1337205898,5807,319.8900146484375000,11.3309001922607420,34.1795997619628900,191.6795043945312500,450.2979125976562500,11.3277597427368160,36.5213203430175800,50,108,91,81,73,15238,2147734354,2147427053,2148008457,2147873481,2147606445,2147113261,2148223378,2147207972,1824,4,13,20215
1337206001,5808,307.5299987792969000,11.7080001831054690,34.1959991455078100,195.2409973144531200,438.1296081542969000,11.7065696716308600,36.0957489013671900,49,108,88,81,72,15236,2147736283,2147427629,2148012379,2147873682,2147606555,2147115245,2148220544,2147208009,1999,4,14,39151
1337206100,5804,296.0400085449219000,12.1169004440307620,34.2162017822265600,195.7718963623047000,423.9401855468750000,12.1472997665405270,35.8340187072753900,49,106,89,81,71,15240,2147733138,2147431268,2148020013,2147874925,2147606601,2147121682,2148223643,2147211309,2407,3,14,54150
1337206221,5812,285.1300048828125000,12.4472999572753900,34.2351989746093750,198.4548034667968800,414.6444091796875000,12.4354801177978520,35.5190391540527340,49,106,90,79,71,15237,2147728685,2147434825,2148034212,2147874221,2147600786,2147123236,2148230116,2147209929,1648,3,14,31201
1337206348,5811,274.9299926757812500,12.7714996337890620,34.2607994079589840,200.7225952148437500,401.4041137695312500,12.8452396392822270,35.1719398498535160,49,107,88,81,71,15239,2147729170,2147436123,2148044160,2147871067,2147598537,2147131035,2148235099,2147209234,2241,3,13,57468
1337206513,5809,264.3500061035156000,13.6349000930786130,34.3254013061523440,204.8544006347656200,376.5201110839844000,13.6133098602294920,34.5382690429687500,48,106,91,79,70,15237,2147729051,2147444370,2148067017,2147873389,2147596342,2147143369,2148241801,2147212800,2740,4,14,16383
1337206744,5810,251.3200073242187500,14.7066001892089840,34.4179992675781250,204.5171966552734400,335.0846862792969000,14.8872299194335940,33.9307594299316400,49,107,89,80,69,15236,2147724507,2147455323,2148100425,2147872649,2147589979,2147151936,2148252022,2147213056,227,4,14,19327
1337206878,5808,239.7299957275390600,15.6312999725341800,34.5374984741210940,213.2373046875000000,310.3588867187500000,15.6450901031494140,33.0680999755859400,49,105,91,80,68,15233,2147726976,2147472914,2148146651,2147871835,2147589659,2147169216,2148269677,2147215780,533,3,14,36153
1337207005,5804,227.9400024414062500,16.1301994323730470,34.5973014831543000,214.9539031982422000,294.1358947753906000,16.1416091918945300,32.7381286621093750,48,106,91,81,67,15229,2147725741,2147498386,2148212278,2147874157,2147585142,2147188160,2148296054,2147221211,2673,2,14,48138
1337207122,5809,217.8500061035156200,16.8717994689941400,34.6842994689941400,215.3018951416015600,270.2691955566406000,16.8713207244873050,32.3784599304199200,50,108,89,81,68,15227,2147729444,2147530075,2148295369,2147870976,2147584548,2147210733,2148335798,2147223387,2598,3,15,63578
1337207273,5802,207.0099945068359400,17.3925991058349600,34.7355995178222660,214.5196075439453000,253.6847991943359400,17.3779907226562500,32.1867790222168000,50,109,88,81,67,15225,2147737929,2147590244,2148415277,2147876004,2147587264,2147248832,2148389732,2147226157,3484,3,15,15270
1337207431,5808,198.8999938964843800,18.0361003875732420,34.7775001525878900,209.4277954101562500,232.3601074218750000,18.0292606353759770,32.1683311462402340,52,105,91,81,67,15223,2147749659,2147648512,2148541138,2147875035,2147587254,2147285001,2148449974,2147231515,1485,3,15,7677
1337207534,5808,194.2899932861328000,18.1259002685546880,34.7706985473632800,208.4788970947265600,229.3898010253906200,18.1199703216552730,32.1799201965332000,53,105,88,81,66,15218,2147763245,2147694802,2148634806,2147872137,2147590939,2147316571,2148493421,2147235382,1354,3,15,15936
1337207613,5809,189.9700012207031200,18.1756992340087900,34.7582015991210940,206.4057006835937500,227.3607025146484400,18.1819400787353500,32.2676506042480500,55,106,89,81,67,15215,2147780269,2147751835,2148739821,2147876507,2147597458,2147344000,2148541750,2147238994,1370,3,15,23720
1337207682,5807,186.0700073242187500,18.4034004211425780,34.7818984985351560,205.7830963134765600,219.8108978271484400,18.4124908447265620,32.1979103088378900,57,107,90,81,67,15214,2147795355,2147808859,2148848374,2147879131,2147602752,2147372086,2148593444,2147242971,1360,3,15,40988
1337207749,5808,182.6100006103515600,18.7234001159667970,34.8232002258300800,205.8329010009765600,210.5496063232422000,18.6953392028808600,32.0665893554687500,59,111,88,81,67,15211,2147811931,2147859401,2148950555,2147878016,2147610121,2147406857,2148643501,2147248914,872,2,15,9321
1337207840,5810,178.7400054931640600,18.8162002563476560,34.8348999023437500,207.4799957275390600,206.5149993896484400,18.8185691833496100,31.9183101654052730,61,113,91,81,67,15206,2147836690,2147917376,2149068333,2147878683,2147617280,2147445339,2148694317,2147249837,3345,2,16,50490
1337207943,5806,175.2100067138672000,19.1292991638183600,34.8863983154296900,207.8769073486328000,197.1956939697265600,19.1032505035400400,31.7679195404052730,65,110,92,80,67,15209,2147856566,2147982354,2149190153,2147878902,2147627382,2147476425,2148747117,2147256320,3171,2,15,29700
1337208096,5805,171.1799926757812500,19.3099002838134770,34.9174003601074200,209.4868927001953000,191.2420959472656200,19.2851600646972660,31.5972309112548830,66,112,92,80,67,15203,2147889837,2148060608,2149329673,2147878317,2147635492,2147519296,2148808438,2147260507,344,3,15,54615
1337208247,5809,167.4199981689453000,19.6863994598388670,34.9622001647949200,210.0942993164062500,179.2854003906250000,19.6505908966064450,31.4013690948486330,72,117,91,84,66,15203,2147933266,2148158125,2149503104,2147879131,2147652425,2147570550,2148884306,2147267062,730,3,15,15972
1337208394,5805,162.9900054931640600,19.9437007904052730,34.9942016601562500,211.5260009765625000,170.2290039062500000,19.9275093078613280,31.2009105682373050,75,114,93,81,66,15197,2148004498,2148312045,2149762724,2147881856,2147679232,2147648429,2148999360,2147277659,2401,2,16,10280
1337208509,5808,159.1000061035156200,20.1194000244140620,34.9882011413574200,212.5939941406250000,164.1784057617187500,20.1125793457031250,31.0621891021728500,81,120,89,83,65,15191,2148087131,2148465581,2150015588,2147883565,2147711460,2147726390,2149097974,2147281472,2457,2,16,45422
1337208647,5808,154.7200012207031200,20.4340991973876950,35.0141983032226560,213.5502014160156200,154.1844024658203000,20.4184093475341800,30.8772697448730470,85,120,92,83,65,15183,2148233453,2148732873,2150441618,2147887798,2147764809,2147862811,2149286235,2147298212,286,2,16,53745
1337208738,5805,150.3899993896484400,20.5960006713867200,35.0153999328613300,214.8780975341797000,148.8182983398437500,20.5827007293701170,30.7354393005371100,89,119,90,82,64,15176,2148389942,2149007387,2150876160,2147890989,2147826797,2147999488,2149467803,2147310994,2848,2,15,31998
1337208817,5808,146.6199951171875000,20.7570991516113280,35.0256996154785160,215.5525054931640600,143.3390960693359400,20.7505092620849600,30.6271705627441400,95,120,91,84,64,15173,2148576521,2149312274,2151349302,2147894966,2147898642,2148136850,2149661476,2147328128,1998,2,15,1670
1337208908,5809,142.6999969482422000,21.0344009399414060,35.0503997802734400,216.0124969482422000,134.8820953369140600,21.0096607208251950,30.4911994934082030,99,120,91,83,65,15165,2148827785,2149692617,2151925760,2147903936,2147990052,2148319076,2149898953,2147348324,960,3,16,50876
1337209037,5810,139.4600067138672000,21.4498004913330080,35.0900993347168000,218.5084991455078000,121.3498992919921900,21.4246902465820300,30.1842594146728500,115,125,93,83,64,15139,2149100726,2150109366,2152511286,2147911213,2148089792,2148495021,2150119606,2147368164,1268,2,16,57381
1337209248,5809,135.5800018310547000,21.7532005310058600,35.1100997924804700,221.3072967529297000,112.7851028442382800,21.6876392364501950,29.9299602508544920,121,128,92,83,64,15130,2149544301,2150740809,2153373952,2147922660,2148261650,2148783945,2150455232,2147396854,1263,2,16,13499
1337209494,5808,131.5800018310547000,21.9932003021240230,35.0945014953613300,225.5471954345703000,103.1539001464843800,21.9835796356201170,29.5942192077636720,134,129,93,85,63,15116,2150399113,2151859757,2154795474,2147943232,2148586669,2149219337,2150937106,2147440731,3377,2,16,42470
1337209668,5810,126.8600006103515600,22.3624000549316400,35.1453018188476560,228.1174926757812500,91.5730667114257800,22.3398399353027340,29.3202590942382800,144,137,92,84,63,15088,2151957906,2153916160,2157272722,2147973988,2149174491,2149997613,2151791808,2147522624,3113,2,16,43581
1337209759,5808,122.5800018310546900,22.7066001892089840,35.1310997009277340,230.4945068359375000,81.7793273925781200,22.6414909362792970,29.0813407897949220,151,131,94,84,62,15080,2153390409,2155805165,2159473490,2148009462,2149744246,2150743149,2152605412,2147600603,127,2,15,28866
1337209862,5806,119.1399993896484400,22.7455997467041000,35.1088981628418000,231.7315979003906200,78.6235427856445300,22.7387599945068360,28.9825096130371100,171,135,93,88,61,15063,2155050038,2157976585,2161859529,2148049042,2150382592,2151540964,2153425261,2147683099,2135,2,16,14394
1337209976,5809,114.6500015258789000,22.9750995635986330,35.1092987060546900,233.1255950927734400,70.8676528930664000,22.9780006408691400,28.8188495635986330,145,132,94,84,61,15050,2158080676,2161784914,2165724525,2148113755,2151531492,2152927670,2154787218,2147824182,1355,2,16,16582
1337210067,5809,110.5899963378906200,23.2570991516113280,35.1545982360839840,235.1091003417968800,62.1102905273437500,23.2484207153320300,28.6160392761230470,105,126,93,84,59,15097,2161123364,2165401801,2169237037,2148191478,2152963492,2154642240,2156377069,2147981083,873,2,16,3629
1337210158,5807,106.5000000000000000,23.5858993530273440,35.1980018615722660,236.1940002441406200,51.6044998168945300,23.5732707977294920,28.4343891143798830,93,129,94,85,60,15105,2164812891,2169667410,2173233874,2148291922,2154877714,2156932096,2158377938,2148176914,1665,1,16,46151
1337210251,5808,103.0800018310546900,23.7693004608154300,35.2112998962402340,237.9526977539062500,45.7411003112793000,23.7547893524169920,28.2808494567871100,85,129,95,86,63,15104,2167907300,2173067410,2176285696,2148392109,2156673581,2159031360,2160164224,2148345801,1406,2,16,48543
1337210378,5809,98.9499969482421900,23.9454994201660160,35.2085990905761700,239.6479949951172000,40.4601287841796900,23.9184207916259770,28.1384696960449220,79,132,91,85,60,15103,2172314267,2177877440,2180774976,2148550308,2159503168,2162234870,2162822317,2148601545,772,2,16,45454
1337210445,5810,97.1399993896484400,23.9724998474121100,35.2117004394531250,239.8448944091797000,39.3817481994628900,23.9518508911132800,28.1163997650146500,77,133,90,86,57,15105,2174492955,2180270464,2183053851,2148647405,2160928758,2163838390,2164117028,2148722889,997,2,16,54137
1337210524,5810,95.2399978637695300,23.9925003051757800,35.2114982604980500,239.6457977294922000,38.6675491333007800,23.9739894866943360,28.1162891387939450,76,129,95,87,58,15097,2176815890,2182729398,2185255890,2148738541,2162616036,2165716461,2165602002,2148855625,1117,2,16,26172
1337210601,5808,92.8000030517578100,24.0891990661621100,35.2112998962402340,239.9552001953125000,35.3264808654785160,24.0776195526123050,28.0609397888183600,74,129,95,87,59,15095,2180845467,2187140534,2189388507,2148914916,2165529645,2168963337,2168178194,2149099529,1680,1,16,26508
1337210656,5807,90.3899993896484400,24.1250000000000000,35.1971015930175800,240.3921051025390600,33.5634002685546900,24.1323204040527340,28.0196800231933600,72,132,96,87,58,15093,2184587090,2191149796,2193063597,2149131136,2168526537,2172180672,2170634084,2149328374,1628,1,16,23216
1337210711,5810,87.9899978637695300,24.1469993591308600,35.1837997436523440,241.5579071044922000,33.1933212280273440,24.1438007354736330,27.9630107879638670,72,133,93,87,60,15091,2188054528,2194540251,2196192941,2149321051,2171588178,2175380836,2172986706,2149543341,1275,2,16,63729
1337210766,5808,85.5899963378906200,24.1700000762939450,35.1749992370605500,241.9308013916015600,32.1227111816406250,24.1770305633544920,27.9332008361816400,73,130,94,88,58,15086,2192490057,2199269202,2200545280,2149583296,2175187172,2179154093,2175812324,2149816978,1638,2,16,40895
1337210821,5808,83.2600021362304700,24.2166004180908200,35.1624984741210940,242.3986968994140600,31.0176696777343750,24.2113304138183600,27.8988990783691400,71,129,93,86,58,15091,2196566070,2203448320,2204452251,2149858706,2178716873,2182856896,2178630976,2150085942,1269,1,16,58693
1337210876,5808,81.1299972534179700,24.2273006439209000,35.1642990112304700,242.8854980468750000,30.5362606048584000,24.2262802124023440,27.8714599609375000,69,130,96,86,58,15083,2200501275,2207469714,2208235510,2150170578,2182236736,2186468306,2181323181,2150352091,703,2,16,52078
1337210933,5808,78.8899993896484400,24.2700996398925780,35.1548004150390600,243.1900024414062500,29.2653102874755860,24.2657394409179700,27.8424205780029300,68,129,95,86,59,15082,2204590080,2211529097,2211576338,2150541641,2186141010,2190321234,2184092178,2150636672,357,2,16,23974
1337210988,5809,76.8099975585937500,24.2840003967285160,35.1495018005371100,243.5298004150390600,28.7291202545166000,24.2823905944824220,27.8207893371582030,67,128,95,86,56,15085,2209053302,2216217462,2216364635,2150924480,2190232320,2194477860,2187136265,2150956169,734,1,16,60959
1337211043,5806,74.9000015258789000,24.2884998321533200,35.1332015991210940,243.6793975830078000,28.3612995147705080,24.2938194274902340,27.8097400665283200,66,127,92,85,58,15081,2213585042,2220851035,2220703515,2151352713,2194539501,2198829540,2190331867,2151286016,889,1,16,60313
1337211098,5808,73.0999984741211000,24.3164005279541000,35.1265983581543000,243.6224975585937500,27.6257591247558600,24.3166599273681640,27.8031501770019530,64,128,97,87,57,15080,2217454774,2224625115,2223924178,2151699355,2198432694,2202538624,2192895789,2151547190,403,2,16,43228
1337211165,5809,70.9499969482421900,24.3558998107910160,35.1235008239746100,243.5610961914062500,26.2669906616210940,24.3588695526123050,27.7890300750732420,64,128,95,87,55,15083,2222709577,2230624155,2229774281,2152404836,2203330212,2207319753,2196325833,2151938861,3323,1,17,60696
1337211220,5811,69.1200027465820300,24.3736991882324220,35.1222991943359400,243.7910003662109400,25.7740707397460940,24.3741893768310550,27.7728595733642580,63,128,93,85,57,15083,2226781833,2234062518,2232416237,2152869312,2207782006,2211846646,2199430418,2152285348,2955,2,17,19391
1337211298,5807,65.8499984741211000,24.4055995941162100,35.1179008483886700,243.9114074707031200,24.7640399932861330,24.4055690765380860,27.7551307678222660,62,129,93,85,58,15076,2238012726,2246113097,2244332992,2154459867,2218395638,2221827355,2206524809,2153178697,2528,2,16,54006
1337211353,5811,62.8100013732910160,24.4792995452880860,35.0946006774902340,243.7552032470703000,22.6042308807373050,24.4727096557617200,27.7353000640869140,61,128,92,85,58,15073,2247373220,2255654555,2253426633,2155980790,2228849298,2231984640,2213774537,2154104402,2421,2,16,25024
1337211408,5810,59.9900016784668000,24.5209999084472660,35.0821990966796900,243.5189971923828000,21.1435699462890620,24.5181198120117200,27.7278900146484380,60,126,95,85,54,15078,2254752164,2262930340,2260521389,2157435821,2237915026,2240253961,2219468205,2154820845,2956,1,16,24952
1337211463,5809,57.3699989318847660,24.5527000427246100,35.0714988708496100,243.5814056396484400,20.0743293762207030,24.5513706207275400,27.7118492126464840,60,126,92,85,55,15082,2264191862,2272909302,2270061933,2159391049,2249761453,2251314532,2227013714,2155865984,2532,2,16,52708
1337211518,5808,54.8800010681152340,24.5545005798339840,35.0713996887207000,243.5393981933593800,19.8598308563232420,24.5580406188964840,27.7110691070556640,60,126,95,87,61,15081,2273332416,2282476169,2279538203,2161695936,2259924434,2260377161,2232985170,2156783771,2328,2,16,23742
1337211573,5809,52.4599990844726560,24.5562000274658200,35.0690002441406250,243.6921997070312500,19.7747707366943360,24.5606899261474600,27.7032699584960940,58,124,94,85,60,15059,2284341321,2294052681,2290888768,2164246829,2271533019,2271011894,2240153572,2157958043,2297,1,16,22197
1337211630,5810,50.0200004577636700,24.5582008361816400,35.0666007995605500,243.6174926757812500,19.6722908020019530,24.5638809204101560,27.7053699493408200,58,124,93,85,59,15078,2289562843,2298219465,2293975515,2166252882,2284470381,2282762084,2248133083,2159157147,2389,2,17,43713
1337211685,5809,47.7799987792968750,24.5480995178222660,35.0340003967285160,243.7052001953125000,19.8419399261474600,24.5585994720459000,27.7036399841308600,57,126,95,85,54,15077,2300110491,2309592109,2305782802,2169482651,2295317110,2291842267,2253797211,2160051382,2363,2,16,65053
1337211740,5808,45.7900009155273440,24.5207996368408200,35.0061988830566400,243.9965972900390600,20.6536998748779300,24.5333499908447270,27.7008991241455080,58,124,94,85,58,15073,2309147419,2319287890,2315817142,2173028525,2308309046,2303665984,2261709577,2161357604,2401,2,16,38598
1337211795,5810,43.9599990844726560,24.5028991699218750,34.9892005920410160,244.0052947998047000,21.2764301300048830,24.5139904022216800,27.7080497741699220,57,135,95,87,56,15073,2318028251,2328063524,2324084708,2175838290,2321160603,2314889993,2268832969,2162803428,2494,2,16,55910
1337211850,5807,42.1599998474121100,24.4778003692626950,34.9677009582519500,244.0401000976562500,21.8998603820800780,24.4946002960205080,27.7142105102539060,55,124,93,86,58,15069,2322388626,2331763547,2327821165,2178512054,2329182637,2321723364,2273312795,2163586304,2966,1,17,12842
1337211952,5808,39.5400009155273440,24.5184001922607420,34.9733009338378900,243.9441070556640600,20.8903198242187500,24.5259990692138670,27.7060203552246100,55,126,97,84,56,15072,2339846180,2350987913,2348056512,2187175954,2350288438,2339901714,2284928256,2166064685,3162,2,16,42471
1337212007,5815,36.8800010681152340,24.5266990661621100,34.9728012084960940,244.1116943359375000,20.5545597076416000,24.5364398956298830,27.6945896148681640,53,123,95,89,58,15070,2345505453,2354136521,2350731026,2192228169,2371966354,2359285686,2297771401,2168351341,3585,1,17,52540
1337212062,5808,34.1300010681152340,24.5268993377685550,34.9698982238769500,244.3737945556640600,20.4406795501709000,24.5399799346923830,27.6817302703857420,52,124,95,85,59,15068,2361498706,2371103945,2368684361,2201620013,2394060489,2378611456,2310344118,2171291721,48,2,16,48454
1337212117,5808,31.3600006103515620,24.5293006896972660,34.9646987915039060,244.4237976074218800,20.3183307647705080,24.5437793731689450,27.6780204772949220,53,124,93,84,56,15067,2381451584,2392699922,2391627776,2214105819,2423009773,2404238180,2327573257,2175330816,3570,1,16,13403
1337212172,5813,28.6100006103515620,24.5307006835937500,34.9627990722656250,244.4660034179687500,20.1673698425292970,24.5484790802001950,27.6742591857910160,52,126,95,86,54,15062,2395994038,2406959716,2406331163,2226586916,2449242514,2427182125,2342720265,2179651638,66,2,16,44308